Flag for Cameroon Weather past 2 weeks in Bamenda, Cameroon

Now
77 °F

Partly sunny.


Feels Like: 78 °F
Forecast: 63 / 72 °F
Wind: 9 mph from Southwest

Location: Douala Obs.

Current Time: Aug 1, 2014 at 11:33:52 AM

Latest Report: Aug 1, 2014 at 11:00 AM


Visibility: 4 mi

Pressure: 30.01 "Hg

Humidity: 94%

Dew point: 75 °F

Location of BamendaLocation

Historic Weather in Bamenda — Graph

°F

Bamenda temperature yesterday

Maximum temperature yesterday: 79 °F (at 1:00 PM)
Minimum temperature yesterday: 75 °F (at 7:00 AM)
Average temperature yesterday: 76 °F

Past Weeks' High & Low Weather Summary

 TemperatureHumidityPressure
High84 °F (Jul 19, 4:00 PM)100% (Jul 18, 2:00 AM)30.04 "Hg (Jul 18, 2:00 AM)
Low73 °F (Jul 24, 8:00 AM)70% (Jul 19, 4:00 PM)29.86 "Hg (Jul 29, 5:00 PM)
Average77 °F92%29.97 "Hg
* Reported Jul 17 10:00 AM — Aug 1 10:00 AM, Bamenda, Weather by CustomWeather, © 2014

Note: Actual official high and low records may vary slightly from our data, if they occured in-between our weather recording intervals... More about our weather records

Advertising

Bamenda weather history for previous 24 hours

 ConditionsComfort  
Time TempWeatherWind HumidityBarometerVisibility
10:00 AM
Aug 1
77 °FDrizzle. Broken clouds.5 mph94%30.01 "Hg2 mi
9:00 AM75 °FDrizzle. Broken clouds.7 mph94%30.01 "Hg2 mi
8:00 AM75 °FBroken clouds.7 mph100%30.01 "Hg4 mi
7:00 AM75 °FDrizzle. Broken clouds.No wind94%29.98 "Hg4 mi
6:00 AM75 °FPartly cloudy.7 mph94%29.98 "Hg4 mi
5:00 AM75 °FPartly cloudy.No wind94%29.95 "Hg4 mi
4:00 AM75 °FPartly cloudy.5 mph94%29.95 "Hg4 mi
3:00 AM75 °FPartly cloudy.5 mph94%29.95 "Hg4 mi
2:00 AM75 °FDrizzle. Mostly cloudy.5 mph94%29.98 "Hg4 mi
1:00 AM75 °FDrizzle. Mostly cloudy.No wind94%29.98 "Hg4 mi
12:00 AM75 °FDrizzle. Mostly cloudy.No wind100%29.98 "Hg2 mi
11:00 PM
Jul 31
75 °FPartly cloudy.No wind100%30.01 "Hg5 mi
10:00 PM75 °FPartly cloudy.No wind100%29.98 "Hg4 mi
9:00 PM75 °FMostly cloudy.No wind100%29.98 "Hg4 mi
8:00 PM75 °FDrizzle. Mostly cloudy.5 mph100%29.95 "Hg2 mi
7:00 PM75 °FDrizzle. Mostly cloudy.12 mph100%29.95 "Hg1 mi
6:00 PM75 °FDrizzle. More clouds than sun.7 mph100%29.92 "Hg1 mi
5:00 PM75 °FDrizzle. More clouds than sun.9 mph94%29.92 "Hg2 mi
4:00 PM77 °FDrizzle. More clouds than sun.No wind94%29.92 "Hg2 mi
3:00 PM77 °FDrizzle. More clouds than sun.5 mph94%29.92 "Hg1 mi
2:00 PM77 °FDrizzle. Broken clouds.6 mph94%29.95 "Hg2 mi
1:00 PM79 °FDrizzle. Broken clouds.7 mph94%29.95 "Hg2 mi
12:00 PM77 °FDrizzle. More clouds than sun.5 mph94%29.98 "Hg5 mi
11:00 AM77 °FDrizzle. More clouds than sun.5 mph94%29.98 "Hg5 mi
Weather by CustomWeather, © 2014

See weather overviewHow to use our weather pages